Corpus Christi, Texas Weather Center

Moon Phase Calendar



Online Cameras

 


      

Current Conditions in Ingleside
5/25/2024 4:11:38 PM

90°F
Feels Like 103
Clouds
Humidity
72%
Pressure
29.74"
Wind
21.8 mph (SE)
Dew Point
80°F
UV Index
7/10 (High)
Visibility
6 mi

Hourly Forecast

Date & Time Sat, May 25
4:00 PM
Sat, May 25
5:00 PM
Sat, May 25
6:00 PM
Sat, May 25
7:00 PM
Sat, May 25
8:00 PM
Sat, May 25
9:00 PM
Sat, May 25
10:00 PM
Sat, May 25
11:00 PM
Sun, May 26
12:00 AM
Sun, May 26
1:00 AM
Sun, May 26
2:00 AM
Sun, May 26
3:00 AM
Sun, May 26
4:00 AM
Sun, May 26
5:00 AM
Sun, May 26
6:00 AM
Sun, May 26
7:00 AM
Sun, May 26
8:00 AM
Sun, May 26
9:00 AM
Sun, May 26
10:00 AM
Sun, May 26
11:00 AM
Sun, May 26
12:00 PM
Sun, May 26
1:00 PM
Sun, May 26
2:00 PM
Sun, May 26
3:00 PM
Sun, May 26
4:00 PM
Sun, May 26
5:00 PM
Sun, May 26
6:00 PM
Sun, May 26
7:00 PM
Sun, May 26
8:00 PM
Sun, May 26
9:00 PM
Sun, May 26
10:00 PM
Sun, May 26
11:00 PM
Mon, May 27
12:00 AM
Mon, May 27
1:00 AM
Mon, May 27
2:00 AM
Mon, May 27
3:00 AM
Mon, May 27
4:00 AM
Mon, May 27
5:00 AM
Mon, May 27
6:00 AM
Mon, May 27
7:00 AM
Mon, May 27
8:00 AM
Mon, May 27
9:00 AM
Mon, May 27
10:00 AM
Mon, May 27
11:00 AM
Mon, May 27
12:00 PM
Mon, May 27
1:00 PM
Mon, May 27
2:00 PM
Mon, May 27
3:00 PM
Condition
Clouds

Clouds

Clouds

Clouds

Clouds

Clouds

Clouds

Clouds

Clouds

Clouds

Clouds

Clouds

Clouds

Clouds

Clouds

Clouds

Clouds

Clouds

Clouds

Clouds

Clouds

Clouds

Clouds

Clouds

Clouds

Clouds

Clouds

Clouds

Clear

Clear

Clear

Clear

Clear

Clear

Clear

Clear

Clear

Clear

Clear

Clear

Clear

Clouds

Clouds

Clouds

Clouds

Clouds

Clouds

Clouds
Temperature 90°F89°F87°F86°F83°F82°F81°F81°F81°F81°F81°F81°F81°F82°F82°F82°F82°F82°F83°F84°F84°F84°F84°F83°F83°F83°F83°F83°F83°F83°F83°F83°F82°F82°F82°F82°F82°F82°F82°F82°F82°F83°F83°F83°F84°F84°F84°F84°F
Feels Like 103°F101°F100°F98°F94°F90°F90°F89°F90°F90°F90°F90°F90°F90°F91°F90°F91°F92°F93°F94°F95°F95°F95°F93°F93°F94°F93°F93°F92°F92°F92°F92°F92°F91°F91°F91°F91°F90°F90°F90°F92°F94°F95°F95°F95°F96°F95°F95°F
Cloudiness 20%29%41%46%11%55%69%53%48%57%98%82%80%66%61%57%22%32%38%47%47%47%50%50%42%37%33%29%6%6%6%6%5%5%3%2%1%1%2%3%5%12%22%28%29%27%100%53%
Visibility 6 mi6 mi6 mi6 mi6 mi6 mi6 mi6 mi6 mi6 mi6 mi6 mi6 mi6 mi6 mi6 mi6 mi6 mi6 mi6 mi6 mi6 mi6 mi6 mi6 mi6 mi6 mi6 mi6 mi6 mi6 mi6 mi6 mi6 mi6 mi6 mi6 mi6 mi6 mi6 mi6 mi6 mi6 mi6 mi6 mi6 mi6 mi6 mi
Precipitation 0%0%0%0%0%0%0%0%0%0%0%0%0%0%0%0%0%0%0%0%0%0%0%0%0%0%0%0%0%0%0%0%0%0%0%0%0%0%0%0%0%0%0%0%0%0%0%0%
Humidity 72%75%77%80%84%88%89%91%91%91%92%92%92%91%90%91%90%88%85%83%83%82%84%85%85%85%85%85%86%86%86%85%86%87%87%88%89%89%90%91%90%88%87%86%86%85%85%85%
Dew Point 80°F80°F79°F79°F78°F78°F78°F78°F78°F78°F79°F79°F79°F79°F78°F79°F79°F78°F78°F78°F78°F78°F78°F78°F78°F78°F78°F78°F78°F78°F78°F78°F78°F78°F78°F78°F78°F78°F79°F79°F79°F79°F79°F79°F79°F79°F79°F79°F
Pressure 29.74"29.74"29.74"29.71"29.71"29.74"29.74"29.77"29.74"29.74"29.71"29.68"29.68"29.68"29.71"29.74"29.74"29.74"29.77"29.8"29.77"29.77"29.74"29.74"29.74"29.71"29.68"29.68"29.68"29.68"29.71"29.74"29.77"29.77"29.74"29.74"29.74"29.74"29.74"29.77"29.8"29.83"29.85"29.85"29.85"29.85"29.83"29.83"
Wind Speed 18.9 mph19.7 mph19.7 mph19.2 mph19.3 mph18.8 mph16.5 mph17.8 mph18.8 mph17.8 mph20.6 mph22.1 mph22 mph19.3 mph18.9 mph19.1 mph21 mph20.1 mph15.2 mph15.4 mph17.9 mph17.5 mph18.2 mph18.8 mph16.9 mph18.2 mph18.8 mph19.3 mph20.9 mph21.9 mph20.4 mph17.5 mph15.9 mph15.3 mph12.9 mph12.4 mph13 mph14.3 mph14.2 mph12.9 mph12.4 mph10.4 mph10.3 mph12.3 mph14.2 mph15.2 mph16.7 mph18.9 mph
Wind
Direction
146°
SE
141°
SE
142°
SE
142°
SE
149°
SSE
157°
SSE
159°
SSE
166°
SSE
149°
SSE
152°
SSE
146°
SE
156°
SSE
154°
SSE
160°
SSE
157°
SSE
149°
SSE
147°
SSE
152°
SSE
162°
SSE
159°
SSE
155°
SSE
153°
SSE
145°
SE
143°
SE
145°
SE
145°
SE
143°
SE
143°
SE
145°
SE
152°
SSE
158°
SSE
169°
S
176°
S
172°
S
164°
SSE
167°
SSE
167°
SSE
172°
S
174°
S
167°
SSE
159°
SSE
149°
SSE
141°
SE
136°
SE
137°
SE
138°
SE
139°
SE
138°
SE

Daily Forecast

Date High Low Precip. Humidity
Today
May 25

Clouds
90 °F
81 °F
1%
78%
Sunday
May 26

Clouds
84 °F
81 °F
0%
82%
Monday
May 27

Clouds
84 °F
82 °F
29%
85%
Tuesday
May 28

Clouds
84 °F
82 °F
26%
82%
Wednesday
May 29

Clouds
84 °F
82 °F
0%
80%
Thursday
May 30

Rain
83 °F
81 °F
20%
80%
Friday
May 31

Rain
84 °F
82 °F
20%
77%
Saturday
Jun 1

Rain
84 °F
82 °F
21%
77%
Sunday
Jun 2

Rain
83 °F
82 °F
63%
76%
Monday
Jun 3

Rain
85 °F
81 °F
80%
70%
Tuesday
Jun 4

Clouds
84 °F
81 °F
0%
70%
Wednesday
Jun 5

Rain
84 °F
80 °F
100%
73%
Thursday
Jun 6

Rain
86 °F
79 °F
99%
61%
Friday
Jun 7

Clear
90 °F
79 °F
0%
51%
Saturday
Jun 8

Clouds
86 °F
76 °F
0%
58%
Sunday
Jun 9

Clouds
85 °F
80 °F
0%
61%

Temperature 8-14 Day Outlook



Precipitation 8-14 Day Outlook






About Us
Contact Us
Site Map
Search Site
Advertise With Us
   
CorpusChristi.USGulf.info
THE CORPUS CHRISTI, TEXAS WEBSITE

Copyright 2024, Coastal Town
Privacy    |    Legal